Overview Statistics Trail Chart Weather Telemetry Raw packets
 

This is the latest recevied weather packets stored in our database for station/object SV4JYD-14. If no packets are shown the sender has not sent any weather packets the latest 10 day(s).

<< 1 2 3 4 5 6 >>
Time Temp. Humidity Pressure Rain* Wind** Luminosity Snow
1777976200 20° C 30% 1017 hPa 0 mm - - -
1777975300 20° C 30% 1017 hPa 0 mm - - -
1777974399 19.44° C 32% 1017 hPa 0 mm - - -
1777973499 19.44° C 37% 1017 hPa 0 mm - - -
1777972599 18.89° C 38% 1017 hPa 0 mm - - -
1777971699 18.33° C 45% 1017 hPa 0 mm - - -
1777970798 17.78° C 52% 1017 hPa 0 mm - - -
1777969898 16.67° C 59% 1017 hPa 0 mm - - -
1777968998 16.11° C 65% 1017 hPa 0 mm - - -
1777968097 16.67° C 65% 1017 hPa 0 mm - - -
1777967197 16.11° C 66% 1017 hPa 0 mm - - -
1777966318 15.56° C 67% 1017 hPa 0 mm - - -
1777965397 16.11° C 66% 1017 hPa 0 mm - - -
1777964496 16.11° C 66% 1017 hPa 0 mm - - -
1777963596 16.11° C 68% 1017 hPa 0 mm - - -
1777962696 15.56° C 67% 1017 hPa 0 mm - - -
1777961796 15.56° C 68% 1017 hPa 0 mm - - -
1777960896 15° C 68% 1017 hPa 0 mm - - -
1777959995 15° C 68% 1017 hPa 0 mm - - -
1777959095 14.44° C 69% 1017 hPa 0 mm - - -
1777958195 13.89° C 71% 1017 hPa 0 mm - - -
1777957295 12.78° C 73% 1017 hPa 0 mm - - -
1777956395 11.67° C 76% 1017 hPa 0 mm - - -
1777955494 11.11° C 76% 1017 hPa 0 mm - - -
1777954594 10.56° C 76% 1017 hPa 0 mm - - -

* Rain latest hour (hover to see other rain measurements)
** Current wind speed in m/s (hover to see current wind gust speed)